AirNav   Air Wisconsin Up To $57,000 Bonus
 
 1411 users online  

72FL Gator Airpark
St Cloud, Florida, USA

GOING TO ST CLOUD?


FAA INFORMATION EFFECTIVE 25 FEBRUARY 2021

Location

FAA Identifier: 72FL
Lat/Long: 28-09-27.0560N 081-14-05.2680W
28-09.450933N 081-14.087800W
28.1575156,-81.2347967
(estimated)
Elevation: 68 ft. / 21 m (estimated)
Variation: 02W (1990)
From city: 6 miles SE of ST CLOUD, FL
Time zone: UTC -5 (UTC -4 during Daylight Saving Time)
Zip code: 33837

Airport Operations

Airport use: Private use. Permission required prior to landing
Activation date: 02/1993
Control tower: no
ARTCC: JACKSONVILLE CENTER
FSS: SAINT PETERSBURG FLIGHT SERVICE STATION
Attendance: UNATNDD
Segmented circle: no

Airport Communications

WX AWOS-3PT at ISM (13 nm NW): 128.775 (407-847-0533)
WX ASOS at MCO (17 nm N): PHONE 407-855-5235

Nearby radio navigation aids

VOR radial/distance  VOR name  Freq  Var
ORLr167/23.7ORLANDO VORTAC112.2000E
MLBr283/31.9MELBOURNE VOR/DME110.0007W

Airport Services

Runway Information

Runway 9/27

Dimensions: 1800 x 200 ft. / 549 x 61 m
Surface: turf
RUNWAY 9  RUNWAY 27
Traffic pattern: leftleft

Airport Ownership and Management from official FAA records

Ownership: Privately-owned
Owner: ALBRITTON AIRSTRIP TRUST
4525 ALBRITTON RD
SAINT CLOUD, FL 34772
Phone 407-892-4546
Manager: ROBERT L. ALBRITTON
4525 ALBRITTON RD
SAINT CLOUD, FL 34772
Phone 407-908-5656

Airport Operational Statistics

Aircraft based on the field: 6
Single engine airplanes: 6
    
Aircraft operations: avg 25/month
100% local general aviation

Additional Remarks

FOR CD CTC ORLANDO APCH AT 407-852-7553.

Instrument Procedures

There are no published instrument procedures at 72FL.

Some nearby airports with instrument procedures:

KISM - Kissimmee Gateway Airport (13 nm NW)
KMCO - Orlando International Airport (17 nm N)
KORL - Exec Airport (24 nm N)
X07 - Lake Wales Municipal Airport (26 nm SW)
KGIF - Winter Haven Regional Airport (28 nm W)
 
Loc | Ops | Rwys | IFR | FBO | Links
Com | Nav | Svcs | Stats | Notes


 
Area around 72FL (Gator Airpark)
 
Road maps at: MapQuest Bing Google
 
Aerial photo
No photo
 
Sectional chart

 
Airport distance calculator
Flying to Gator Airpark? Find the distance to fly.

From to 72FL

Sunrise and sunset
Times for 05-Mar-2021
 Local
(UTC-5)
 Zulu
(UTC)
Morning civil twilight06:2311:23
Sunrise06:4711:47
Sunset18:2623:26
Evening civil twilight18:5023:50

Current date and time
Zulu (UTC)  05-Mar-2021 16:16:53
Local (UTC-5)  05-Mar-2021 11:16:53
 
METAR
KISM 
13nm NW 
051556Z VRB03KT 10SM CLR 22/04 A3005 RMK AO2 SLP175 T02170044 $
KMCO 
16nm N 
051553Z 04007KT 10SM FEW250 22/04 A3003 RMK AO2 SLP167 T02170039
KORL 
24nm N 
051553Z 03006KT 10SM CLR 23/04 A3003 RMK AO2 SLP173 T02280044
KX07 
26nm SW 
051555Z AUTO 09008KT 10SM CLR 22/05 A3005 RMK A01
TAF
KISM 
13nm NW 
051140Z 0512/0612 00000KT P6SM SKC FM051600 04007KT P6SM FEW250 FM052100 08006KT P6SM SCT250 FM060000 VRB04KT P6SM FEW040 BKN150
KMCO 
16nm N 
051140Z 0512/0618 00000KT P6SM SKC FM051500 04007KT P6SM FEW250 FM052100 08006KT P6SM SCT250 FM060300 VRB03KT P6SM FEW040 BKN150 FM061600 03010G15KT 6SM -SHRA BKN025 OVC100
NOTAMs
Click for the latest NOTAMs
NOTAMs are issued by the DoD/FAA and will open in a separate window not controlled by AirNav.

 

 
 

Would you like to see your business listed on this page?

 If your business provides an interesting product or service to pilots, flight crews, aircraft, or users of the Gator Airpark, you should consider listing it here.  To start the listing process, click on the button below
 
Add a business
 

Other Pages about Gator Airpark

Update a link
 
Copyright © AirNav, LLC. All rights reserved. Privacy Policy  Contact